Flag for Canada Weather past 2 weeks in London, Ontario, Canada

Now
7 °F

Overcast.


Feels Like: 7 °F
Forecast: 6 / 28 °F
Wind: 2 mph from Southeast

Location: London Weather Station

Current Time: Mar 1, 2015 at 1:55:45 AM

Latest Report: Mar 1, 2015 at 1:00 AM


Visibility: 15 mi

Pressure: 30.59 "Hg

Humidity: 78%

Dew point: 1 °F

Location of LondonLocation

Historic Weather in London — Graph

°F

London temperature yesterday

Maximum temperature yesterday: 18 °F (at 1:00 PM)
Minimum temperature yesterday: -9 °F (at 7:00 AM)
Average temperature yesterday: 6 °F

Past Weeks' High & Low Weather Summary

 TemperatureHumidityPressure
High21 °F (Feb 22, 12:00 PM)93% (Feb 14, 6:00 AM)30.81 "Hg (Feb 14, 6:00 AM)
Low-20 °F (Feb 16, 2:00 AM)42% (Feb 20, 3:00 PM)29.61 "Hg (Feb 14, 8:50 AM)
Average3 °F74%30.18 "Hg
* Reported Feb 14 1:00 AM — Mar 1 1:00 AM, London, Weather by CustomWeather, © 2015

Note: Actual official high and low records may vary slightly from our data, if they occured in-between our weather recording intervals... More about our weather records

Advertising

London weather history for previous 24 hours

 ConditionsComfort  
Time TempWeatherWind HumidityBarometerVisibility
1:00 AM
Sun, Mar 1
7 °FOvercast.2 mph78%30.59 "Hg15 mi
12:00 AM7 °FOvercast.6 mph78%30.59 "Hg15 mi
11:00 PM
Sat, Feb 28
3 °FOvercast.3 mph85%30.63 "Hg15 mi
10:00 PM1 °FPassing clouds.5 mph78%30.66 "Hg15 mi
9:00 PM5 °FPassing clouds.3 mph78%30.69 "Hg15 mi
8:00 PM9 °FPassing clouds.5 mph72%30.70 "Hg15 mi
7:00 PM12 °FPassing clouds.5 mph67%30.72 "Hg15 mi
6:00 PM14 °FPassing clouds.7 mph62%30.71 "Hg15 mi
5:00 PM16 °FSunny.10 mph62%30.72 "Hg15 mi
4:00 PM18 °FSunny.10 mph53%30.73 "Hg15 mi
3:00 PM18 °FPassing clouds.10 mph53%30.75 "Hg15 mi
2:00 PM18 °FSunny.8 mph49%30.76 "Hg15 mi
1:00 PM18 °FPassing clouds.10 mph49%30.78 "Hg15 mi
12:00 PM16 °FPassing clouds.10 mph57%30.80 "Hg15 mi
11:00 AM16 °FSunny.10 mph53%30.80 "Hg15 mi
10:00 AM5 °FSunny.No wind72%30.80 "Hg15 mi
9:00 AM-2 °FSunny.3 mph77%30.81 "Hg15 mi
8:00 AM-8 °FSunny.2 mph77%30.80 "Hg15 mi
7:00 AM-9 °FClear.No wind84%30.78 "Hg15 mi
6:00 AM-6 °FClear.2 mph84%30.76 "Hg15 mi
5:00 AM-2 °FClear.No wind77%30.73 "Hg15 mi
4:00 AM0 °FClear.5 mph78%30.72 "Hg15 mi
3:00 AM0 °FClear.5 mph78%30.71 "Hg15 mi
2:00 AM0 °FClear.5 mph78%30.70 "Hg15 mi
1:00 AM1 °FClear.5 mph78%30.69 "Hg15 mi
Weather by CustomWeather, © 2015

See weather overviewHow to use our weather pages